Powrót do katalogu

NOAA 16 DEB

AktywnyPO
NORAD 41236·DEBRIS·🇺🇸 United States

Wystrzelony Sep 21, 2000 z Vandenberg Space Force Base

Loading…

Następne Przeloty (najbliższe 24 godziny)

TLE

ŚwieżeSource: Space-Track

Epoka: Sep 14, 2026, 04:50 UTC

1 41236U 00055ER  26257.20161343  .00004171  00000-0  10415-2 0  9994
2 41236  99.0441 160.4004 0028064 201.1408 158.8627 14.51914497560650

Śledź NOAA 16 DEB w czasie rzeczywistym z AllMySat

Download on the App Store